Location: Falkner
(32.6954°N, 86.0502°W)
Time: 14:49:04
(UTC+00:00)

YAOGAN 1 - Pass Details

Date: 29 October 2020
Orbit: 618 x 620 km, 97.9° (Epoch: 03 December)

Event Time Altitude Azimuth Distance (km) Brightness Sun altitude
Rises 23:40:13 0° 135° (SE) 2,884 5.6 -10.0°
Reaches altitude 10° 23:42:48 10° 119° (ESE) 1,982 4.7 -10.5°
Maximum altitude 23:46:02 21° 70° (ENE) 1,401 3.8 -11.2°
Drops below altitude 10° 23:49:17 10° 21° (NNE) 1,991 4.9 -11.9°
Sets 23:51:53 0° 6° (N) 2,901 5.9 -12.4°
